Вернуться в каталог

HELLAS-SAT 3

АктивенСвязьGEO
NORAD 42814·PAYLOAD·🇪🇺 EU

Запущен Jun 28, 2017 с Guiana Space Centre

Loading…

TLE

СвежийSource: Space-Track

Эпоха: Sep 14, 2026, 13:59 UTC

1 42814U 17040A   26257.58290104  .00000144  00000-0  00000-0 0  9991
2 42814   0.0758  53.4059 0001949  60.0978 128.9147  1.00274669 33700

Отслеживайте HELLAS-SAT 3 в реальном времени с AllMySat

Download on the App Store